Tracking 19281 objects as of 16-Nov-2018
HD Live streaming from Space Station
objects crossing your sky now

COSMOS 2494 (SKRL 756)

Track COSMOS 2494 (SKRL 756) now!
10-day predictions
COSMOS 2494 (SKRL 756) is classified as:


NORAD ID: 39491
Int'l Code: 2013-078B
Perigee: 589.3 km
Apogee: 622.3 km
Inclination: 82.4 °
Period: 96.7 minutes
Semi major axis: 6976 km
RCS: Unknown
Launch date: December 28, 2013
Source: Commonwealth of Independent States (former USSR) (CIS)
Launch site: PLESETSK MISSILE AND SPACE COMPLEX (PKMTR)
aabbcc
Your satellite tracking list
Your tracking list is empty




NASA's NSSDC Master Catalog

Two Line Element Set (TLE):
1 39491U 13078B   18320.23547655  .00000254  00000-0  23710-4 0  9994
2 39491  82.4213  43.9441 0023708 103.4006 256.9857 14.89765467265379
Source of the keplerian elements: AFSPC